Starlink 30443

operational
NORAD ID: 57894 Int'l Des: 2023-146 Owner: SPXS Country: US Constellation: starlink
LEOCIRCULAR

Über Starlink 30443

Beschreibung wird geladen...

Live-Position

3D-Globus wird geladen...

Nächste Überflüge

Höhenverlauf

Altitude vs Time

uPlot chart will show altitude changes over time

Zweizeiliger Elementsatz

1 57894U 23146D 26035.57645982 .00000746 00000-0 70286-4 0 9995
2 57894 43.0021 133.4054 0001423 280.7486 79.3196 15.02540833132080
Epoch: 4. Feb. 2026 • Age: 18 hours

Aktueller Status

Höhe 558.5 km
Geschwindigkeit 7.59 km/s
Subsatellitenpunkt 18.37°N, 97.92°W
Startdatum 20. Sept. 2023
Alter 2.3 years
Typ internet

Technische Details

Klassifizierung Payload
Masse 730.00 kg
Trockenmasse 700.00 kg
Gesamtmasse 730.00 kg
Länge 0.30 m
Durchmesser 4.10 m
Spannweite 29.00 m
Form Box + pan
Hersteller SPXS
Bus-Typ Starlink V2M
Phasenstatus In Orbit
Besitzer/Staat SPXS/US

Große Konstellationen

Loading constellations...